[Iaude] MPEC P52: 2024 PM [a=1.37,e=0.43,i=4.4,H=23.0]

mpec at cfa.harvard.edu mpec at cfa.harvard.edu
Sat Aug 3 17:27:49 EDT 2024


M.P.E.C. 2024-P52                                Issued 2024 August 3, 21:26 UT

     The Minor Planet Electronic Circulars contain information on unusual
         minor planets, routine data on comets and natural satellites,
         and occasional editorial announcements.  They are published
    on behalf of Division F of the International Astronomical Union by the
          Minor Planet Center, Smithsonian Astrophysical Observatory,
                          Cambridge, MA 02138, U.S.A.
			  
             Prepared using the Tamkin Foundation Computer Network

                              MPC at CFA.HARVARD.EDU
            URL https://www.minorplanetcenter.net/    ISSN 1523-6714

                                    2024 PM                                     


Observations:
     K24P00M*KC2024 08 02.33987 21 24 09.442+25 43 53.33         20.2 GVEP052W16
     K24P00M KC2024 08 02.34582 21 24 08.114+25 43 16.03         19.9 GVEP052W16
     K24P00M KC2024 08 02.35178 21 24 06.898+25 42 38.12         20.2 GVEP052W16
     K24P00M KC2024 08 02.35779 21 24 05.666+25 41 59.03         19.6 GVEP052W16
     K24P00M KC2024 08 02.36374 21 24 04.349+25 41 20.76         20.7 GVEP052W16
     K24P00M KC2024 08 02.36964 21 24 03.144+25 40 43.57         20.0 GVEP052W16
     K24P00M KB2024 08 02.99467521 22 13.26 +24 36 18.8                XEP052I93
     K24P00M KB2024 08 03.00003221 22 12.19 +24 35 46.7                XEP052I93
     K24P00M KB2024 08 03.00519921 22 11.19 +24 35 16.0          19.5 GXEP052I93
     K24P00M KC2024 08 03.14641321 21 48.88 +24 21 06.9          20.6 GVEP052H21
     K24P00M KC2024 08 03.14921121 21 48.36 +24 20 50.2          20.6 GVEP052H21
     K24P00M KB2024 08 03.14976 21 21 48.672+24 20 45.67         20.0 RZEP052H36
     K24P00M KC2024 08 03.15340721 21 47.55 +24 20 25.7          20.6 GVEP052H21
     K24P00M KC2024 08 03.15760521 21 46.79 +24 20 00.9          20.4 GVEP052H21
     K24P00M KB2024 08 03.16507 21 21 45.756+24 19 16.57         20.0 RZEP052H36
     K24P00M KC2024 08 03.17575 21 21 43.320+24 18 19.62         19.7 GVEP052W16
     K24P00M KC2024 08 03.18983 21 21 40.582+24 16 57.65         19.6 GVEP052W16
     K24P00M KC2024 08 03.20390 21 21 37.805+24 15 34.09         19.8 GVEP052W16
     K24P00M KB2024 08 03.86192 21 19 49.58 +23 11 30.0          19.9 RZEP052106
     K24P00M KB2024 08 03.86668 21 19 48.77 +23 11 03.3          20.6 RZEP052106
     K24P00M KC2024 08 03.86853821 19 48.69 +23 10 51.9          20.0 GUEP052L06
     K24P00M KC2024 08 03.87064621 19 48.29 +23 10 40.5          19.6 GUEP052L06
     K24P00M KB2024 08 03.87158 21 19 47.89 +23 10 35.8          20.5 RZEP052106
     K24P00M KC2024 08 03.87275521 19 47.95 +23 10 28.6          19.5 GUEP052L06
     K24P00M KB2024 08 03.87634 21 19 47.08 +23 10 08.9          19.8 RZEP052106

Observer details:
106 Crni Vrh.  Observer H. Mikuz.  0.60-m f/3.3 reflector + CMO.
H21 Astronomical Research Observatory, Westfield.  Observer R. Holmes.
    Measurers T. Linder, R. Holmes.  0.76-m f/3.0 astrograph + CCD.
H36 Sandlot Observatory, Scranton.  Observer G. Hug.  0.56-m f/4.25 reflector
    + CMO.
I93 St Pardon de Conques.  Observer F. Losse.  0.40-m f/3.7 reflector + CMO.
L06 Sormano 2 Observatory, Bellagio Via Lattea.  Observer G. Ventre.  Measurer
    P. Sicoli.  0.36m Schmidt Cassegrain + CCD.
W16 Pleasant Groves Observatory.  Observer M. Holbrook.  0.36-m f/2.2
    reflector + CCD.

Orbital elements:
2024 PM                                                  Earth MOID = 0.0610 AU
Epoch 2024 Oct. 17.0 TT = JDT 2460600.5                 MPC                     
M  87.29373              (2000.0)            P               Q                  
n   0.61129521     Peri.  335.75485     -0.72410752     +0.68600604             
a   1.3749980      Node   247.75695     -0.61955385     -0.69233538             
e   0.4331826      Incl.    4.40942     -0.30302034     -0.22375754             
P   1.61           H   23.05          G   0.15           U   9                  
Residuals in seconds of arc
240802 W16  0.3+  0.5-    240803 H21  0.2-  0.1+    240803 106  0.6-  0.0
240802 W16  0.6-  0.2+    240803 H21  0.1-  0.2-    240803 106  0.2-  0.0
240802 W16  0.0   0.5+    240803 H36  0.3+  0.1-    240803 L06  0.4+  0.0
240802 W16  0.5+  0.2-    240803 H21  0.2-  0.0     240803 L06  0.0   0.5+
240802 W16  0.4-  0.4-    240803 H21  0.4+  0.2-    240803 106  0.4-  0.1-
240802 W16  0.0   0.3+    240803 H36  0.0   0.6+    240803 L06  0.4+  0.4+
240802 I93  0.1+  0.6+    240803 W16  0.1+  0.4-    240803 106  0.1+  0.3-
240803 I93  0.0   0.7+    240803 W16  0.2+  0.5+
240803 I93 (0.3+  1.1+)   240803 W16  0.2-  0.1-

Ephemeris:
2024 PM                  a,e,i = 1.37, 0.43, 4                   q = 0.7794
Date    TT    R. A. (2000) Decl.     Delta      r    Elong.  Phase     V
2024 07 04    07 25 50.0 +41 55 51   0.1154  0.9094    20.3   157.2    28.3
...
2024 07 19    00 18 12.9 +65 50 18   0.07295 1.0064    80.2    95.7    20.8
...
2024 07 27    21 54 12.9 +39 52 06   0.09343 1.0618   117.4    58.1    20.1
...
2024 08 02    21 25 16.5 +26 20 27   0.1213  1.1040   135.0    40.5    20.3
2024 08 03    21 22 11.8 +24 36 15   0.1265  1.1110   137.3    38.3    20.3
2024 08 04    21 19 25.5 +22 59 04   0.1319  1.1181   139.4    36.2    20.4
...
2024 08 10    21 07 26.0 +15 12 41   0.1673  1.1603   149.1    26.7    20.7
...
2024 08 18    20 59 00.8 +08 16 58   0.2209  1.2162   155.1    20.5    21.2
...
2024 09 02    20 55 21.3 +00 38 20   0.3403  1.3178   151.4    21.5    22.4

A. U. Tomatic                (C) Copyright 2024 MPC           M.P.E.C. 2024-P52





More information about the Iaude mailing list